This is the latest recevied weather packets stored in our database for station/object KTPA. If no packets are shown the sender has not sent any weather packets the latest 1 day(s).
| Time | Temp. | Humidity | Pressure | Rain* | Wind** | Luminosity | Snow |
|---|---|---|---|---|---|---|---|
| 1778057025 | 21.67° C | 73% | 1015.6 hPa | - | - | - | - |
| 1778055819 | 21.67° C | 73% | 1015.6 hPa | - | - | - | - |
| 1778055218 | 21.67° C | 73% | 1015.6 hPa | - | - | - | - |
| 1778054017 | 22.78° C | 69% | 1016.3 hPa | - | - | - | - |
| 1778053421 | 22.78° C | 69% | 1016.3 hPa | - | - | - | - |
| 1778052220 | 22.78° C | 69% | 1016.3 hPa | - | - | - | - |
| 1778051621 | 22.78° C | 69% | 1016.3 hPa | - | - | - | - |
| 1778051021 | 22.78° C | 69% | 1016.3 hPa | - | - | - | - |
| 1778049818 | 22.78° C | 64% | 1016.6 hPa | - | - | - | - |
| 1778049225 | 22.78° C | 64% | 1016.6 hPa | - | - | - | - |
| 1778048018 | 22.78° C | 64% | 1016.6 hPa | - | - | - | - |
| 1778047423 | 22.78° C | 64% | 1016.6 hPa | - | - | - | - |
| 1778046820 | 23.89° C | 60% | 1016.9 hPa | - | - | - | - |
| 1778045617 | 23.89° C | 60% | 1016.9 hPa | - | - | - | - |
| 1778044418 | 23.89° C | 60% | 1016.9 hPa | - | - | - | - |
| 1778043218 | 25° C | 53% | 1016.6 hPa | - | - | - | - |
| 1778042020 | 25° C | 53% | 1016.6 hPa | - | - | - | - |
| 1778041420 | 25° C | 53% | 1016.6 hPa | - | - | - | - |
| 1778040822 | 25° C | 53% | 1016.6 hPa | - | - | - | - |
| 1778040340 | 25° C | 53% | 1016.6 hPa | - | - | - | - |
| 1778039617 | 25° C | 69% | 1016.6 hPa | - | - | - | - |
| 1778037822 | 25° C | 69% | 1016.6 hPa | - | - | - | - |
| 1778037218 | 25° C | 69% | 1016.6 hPa | - | - | - | - |
| 1778036617 | 25° C | 69% | 1016.6 hPa | - | - | - | - |
| 1778036018 | 23.89° C | 73% | 1015.9 hPa | - | - | - | - |
* Rain since midnight (hover to see other rain measurements)
** Current wind speed in m/s (hover to see current wind gust speed)